Location: Crocus Hill
(18.2167°N, 63.0667°W)
Time: 14:22:50
(UTC+00:00)

SL-16 Debris - Pass Details

Date: 26 January 2020
Orbit: 301 x 11336 km, 28.4° (Epoch: 15 March)

Event Time Altitude Azimuth Distance (km) Brightness Sun altitude
Exits shadow 09:52:56 21° 275° (W) 1,175 4.7 -13.0°
Maximum altitude 09:55:04 59° 200° (SSW) 790 4.3 -12.5°
Drops below altitude 10° 10:03:18 10° 123° (ESE) 4,094 9.4 -10.6°
Sets 10:09:38 0° 120° (ESE) 6,644 11.0 -9.2°
